Location: Leo
(52.0556°N, 112.3605°W)
Time: 09:38:07
(UTC+00:00)

FO-29 - Pass Details

Date: 08 December 2023
Orbit: 799 x 1322 km, 98.6° (Epoch: 01 March)

Event Time Altitude Azimuth Distance (km) Brightness Sun altitude
Rises 11:40:44 0° 13° (NNE) 4,147 13.0 -33.0°
Reaches altitude 10° 11:43:24 10° 8° (N) 3,232 12.3 -32.6°
Enters shadow 11:47:53 36° 345° (NNW) 1,939 10.9 -32.0°
